| time (UTC) | temp C | wind direction | speed KPH | gust KPH | rain 1hr cm | rain 24hr cm | rain mn cm | humidity % | barometer mb |
| 20260508070516 | 8 | 90 | 3.2 | 11.3 | 0.00 | 0.00 | 0.00 | 50 | 1024.0 |
| 20260508065536 | 8 | 113 | 6.4 | 12.9 | 0.00 | 0.00 | 0.00 | 53 | 1024.0 |
| 20260508064536 | 7 | 158 | 3.2 | 6.4 | 0.00 | 0.00 | 0.00 | 51 | 1023.9 |
| 20260508063516 | 7 | 23 | 3.2 | 9.7 | 0.00 | 0.00 | 0.00 | 53 | 1023.9 |
| 20260508062516 | 7 | 68 | 1.6 | 6.4 | 0.00 | 0.00 | 0.00 | 55 | 1023.8 |
| 20260508061516 | 7 | 90 | 3.2 | 6.4 | 0.00 | 0.00 | 0.00 | 58 | 1023.7 |
| 20260508060516 | 6 | 90 | 4.8 | 11.3 | 0.00 | 0.00 | 0.00 | 62 | 1023.6 |
| 20260508055516 | 5 | 90 | 3.2 | 8.0 | 0.00 | 0.00 | 0.00 | 63 | 1023.6 |
| 20260508054516 | 5 | 90 | 4.8 | 11.3 | 0.00 | 0.00 | 0.00 | 66 | 1023.6 |
| 20260508053516 | 4 | 90 | 3.2 | 8.0 | 0.00 | 0.00 | 0.00 | 67 | 1023.6 |
| 20260508052556 | 3 | 90 | 3.2 | 9.7 | 0.00 | 0.00 | 0.00 | 69 | 1023.6 |
| 20260508051516 | 3 | 90 | 3.2 | 8.0 | 0.00 | 0.00 | 0.00 | 70 | 1023.5 |
| 20260508050516 | 2 | 113 | 4.8 | 8.0 | 0.00 | 0.00 | 0.00 | 74 | 1023.3 |
| 20260508045516 | 2 | 90 | 3.2 | 8.0 | 0.00 | 0.00 | 0.00 | 77 | 1023.3 |
| 20260508044516 | 1 | 90 | 3.2 | 4.8 | 0.00 | 0.00 | 0.00 | 80 | 1023.2 |
| 20260508043516 | 1 | 90 | 1.6 | 3.2 | 0.00 | 0.00 | 0.00 | 81 | 1023.1 |
| 20260508042536 | 1 | 0.0 | 1.6 | 0.00 | 0.00 | 0.00 | 81 | 1023.1 | |
| 20260508041516 | 0 | 0.0 | 1.6 | 0.00 | 0.00 | 0.00 | 84 | 1023.1 | |
| 20260508040516 | 0 | 0.0 | 0.0 | 0.00 | 0.00 | 0.00 | 89 | 1022.9 | |
| 20260508035516 | -1 | 0.0 | 0.0 | 0.00 | 0.00 | 0.00 | 88 | 1022.8 | |
| 20260508034516 | -1 | 0.0 | 0.0 | 0.00 | 0.00 | 0.00 | 88 | 1022.7 | |
| 20260508033516 | -2 | 0.0 | 0.0 | 0.00 | 0.00 | 0.00 | 87 | 1022.6 | |
| 20260508032516 | -2 | 0.0 | 0.0 | 0.00 | 0.00 | 0.00 | 87 | 1022.6 | |
| 20260508031516 | -2 | 0.0 | 0.0 | 0.00 | 0.00 | 0.00 | 87 | 1022.6 | |
| 20260508030516 | -2 | 0.0 | 0.0 | 0.00 | 0.00 | 0.00 | 86 | 1022.5 | |
| 20260508025516 | -2 | 0.0 | 0.0 | 0.00 | 0.00 | 0.00 | 86 | 1022.4 | |
| 20260508024516 | -2 | 0.0 | 0.0 | 0.00 | 0.00 | 0.00 | 85 | 1022.3 | |
| 20260508023535 | -2 | 0.0 | 0.0 | 0.00 | 0.00 | 0.00 | 85 | 1022.2 | |
| 20260508021516 | -2 | 0.0 | 1.6 | 0.00 | 0.00 | 0.00 | 84 | 1022.1 | |
| 20260508020556 | -1 | 0.0 | 1.6 | 0.00 | 0.00 | 0.00 | 84 | 1022.0 | |
| 20260508015516 | -1 | 0.0 | 0.0 | 0.00 | 0.00 | 0.00 | 83 | 1021.9 | |
| 20260508014515 | -1 | 0.0 | 1.6 | 0.00 | 0.00 | 0.00 | 83 | 1021.8 | |
| 20260508013516 | -1 | 0.0 | 0.0 | 0.00 | 0.00 | 0.00 | 83 | 1021.7 | |
| 20260508012536 | -1 | 0.0 | 1.6 | 0.00 | 0.00 | 0.00 | 82 | 1021.6 | |
| 20260508011536 | -1 | 0.0 | 0.0 | 0.00 | 0.00 | 0.00 | 82 | 1021.4 | |
| 20260508010516 | -1 | 0.0 | 0.0 | 0.00 | 0.00 | 0.00 | 81 | 1021.4 | |
| 20260508005516 | -1 | 0.0 | 1.6 | 0.00 | 0.00 | 0.00 | 80 | 1021.3 | |
| 20260508004516 | -1 | 0.0 | 0.0 | 0.00 | 0.00 | 0.00 | 80 | 1021.2 | |
| 20260508003515 | -1 | 338 | 1.6 | 1.6 | 0.00 | 0.00 | 0.00 | 80 | 1021.1 |
| 20260508002516 | -1 | 0.0 | 0.0 | 0.00 | 0.00 | 0.00 | 79 | 1021.2 | |
| 20260508001516 | 0 | 0.0 | 1.6 | 0.00 | 0.00 | 0.00 | 78 | 1021.0 | |
| 20260508000516 | 0 | 0.0 | 1.6 | 0.00 | 0.00 | 0.00 | 78 | 1020.9 | |
| 20260507235515 | 0 | 0.0 | 0.0 | 0.00 | 0.00 | 0.00 | 77 | 1020.8 | |
| 20260507234516 | 0 | 0.0 | 0.0 | 0.00 | 0.00 | 0.00 | 76 | 1020.8 | |
| 20260507233555 | 0 | 0.0 | 0.0 | 0.00 | 0.00 | 0.00 | 75 | 1020.7 | |
| 20260507232515 | 0 | 338 | 1.6 | 1.6 | 0.00 | 0.00 | 0.00 | 75 | 1020.6 |
| 20260507231536 | 0 | 338 | 1.6 | 3.2 | 0.00 | 0.00 | 0.00 | 74 | 1020.5 |
| 20260507230516 | 0 | 0.0 | 1.6 | 0.00 | 0.00 | 0.00 | 73 | 1020.4 | |
| 20260507225516 | 0 | 338 | 1.6 | 3.2 | 0.00 | 0.00 | 0.00 | 72 | 1020.4 |
| 20260507224535 | 0 | 0.0 | 0.0 | 0.00 | 0.00 | 0.00 | 71 | 1020.3 | |
| 20260507223515 | 1 | 338 | 1.6 | 3.2 | 0.00 | 0.00 | 0.00 | 70 | 1020.2 |
| 20260507222516 | 1 | 0.0 | 3.2 | 0.00 | 0.00 | 0.00 | 69 | 1020.1 | |
| 20260507221536 | 1 | 45 | 1.6 | 3.2 | 0.00 | 0.00 | 0.00 | 68 | 1020.1 |
| 20260507220515 | 1 | 0.0 | 1.6 | 0.00 | 0.00 | 0.00 | 66 | 1019.9 | |
| 20260507215517 | 1 | 45 | 1.6 | 3.2 | 0.00 | 0.00 | 0.00 | 65 | 1019.9 |
| 20260507214517 | 2 | 0.0 | 1.6 | 0.00 | 0.00 | 0.00 | 64 | 1019.8 | |
| 20260507213517 | 2 | 0.0 | 1.6 | 0.00 | 0.00 | 0.00 | 62 | 1019.9 | |
| 20260507212517 | 2 | 0.0 | 1.6 | 0.00 | 0.00 | 0.00 | 61 | 1019.6 | |
| 20260507211517 | 2 | 0.0 | 1.6 | 0.00 | 0.00 | 0.00 | 59 | 1019.4 | |
| 20260507210517 | 3 | 0.0 | 1.6 | 0.00 | 0.00 | 0.00 | 58 | 1019.3 | |
| 20260507205517 | 3 | 0.0 | 3.2 | 0.00 | 0.00 | 0.00 | 56 | 1019.1 | |
| 20260507204517 | 3 | 90 | 1.6 | 4.8 | 0.00 | 0.00 | 0.00 | 55 | 1019.0 |
| 20260507203517 | 3 | 23 | 1.6 | 3.2 | 0.00 | 0.00 | 0.00 | 56 | 1018.9 |
| 20260507202517 | 4 | 0 | 4.8 | 9.7 | 0.00 | 0.00 | 0.00 | 56 | 1018.9 |
| 20260507201517 | 4 | 0 | 1.6 | 4.8 | 0.00 | 0.00 | 0.00 | 53 | 1018.5 |
| 20260507200517 | 5 | 0.0 | 1.6 | 0.00 | 0.00 | 0.00 | 50 | 1018.5 | |
| 20260507195517 | 5 | 0 | 1.6 | 3.2 | 0.00 | 0.00 | 0.00 | 49 | 1018.4 |
| 20260507194517 | 6 | 0.0 | 3.2 | 0.00 | 0.00 | 0.00 | 45 | 1018.3 | |
| 20260507193517 | 6 | 0.0 | 1.6 | 0.00 | 0.00 | 0.00 | 39 | 1018.1 | |
| 20260507192517 | 7 | 0 | 1.6 | 3.2 | 0.00 | 0.00 | 0.00 | 36 | 1018.0 |
| 20260507191537 | 8 | 0 | 1.6 | 4.8 | 0.00 | 0.00 | 0.00 | 33 | 1017.9 |
| 20260507190517 | 9 | 0.0 | 1.6 | 0.00 | 0.00 | 0.00 | 30 | 1017.7 | |
| 20260507185517 | 10 | 23 | 1.6 | 4.8 | 0.00 | 0.00 | 0.00 | 29 | 1017.6 |
| 20260507184517 | 10 | 23 | 1.6 | 4.8 | 0.00 | 0.00 | 0.00 | 28 | 1017.6 |
| 20260507183517 | 11 | 23 | 3.2 | 6.4 | 0.00 | 0.00 | 0.00 | 27 | 1017.5 |
| 20260507182517 | 11 | 45 | 3.2 | 6.4 | 0.00 | 0.00 | 0.00 | 24 | 1017.4 |
| 20260507181517 | 12 | 45 | 1.6 | 6.4 | 0.00 | 0.00 | 0.00 | 23 | 1017.3 |
| 20260507180517 | 12 | 45 | 3.2 | 6.4 | 0.00 | 0.00 | 0.00 | 24 | 1017.2 |
| 20260507175517 | 12 | 45 | 4.8 | 9.7 | 0.00 | 0.00 | 0.00 | 23 | 1017.0 |
| 20260507174517 | 12 | 23 | 4.8 | 8.0 | 0.00 | 0.00 | 0.00 | 23 | 1016.9 |
| 20260507173517 | 13 | 23 | 3.2 | 6.4 | 0.00 | 0.00 | 0.00 | 21 | 1016.8 |
| 20260507172517 | 13 | 23 | 4.8 | 8.0 | 0.00 | 0.00 | 0.00 | 19 | 1016.7 |
| 20260507171537 | 13 | 0 | 3.2 | 6.4 | 0.00 | 0.00 | 0.00 | 21 | 1016.6 |
| 20260507170537 | 13 | 23 | 6.4 | 11.3 | 0.00 | 0.00 | 0.00 | 21 | 1016.6 |
| 20260507165517 | 14 | 23 | 6.4 | 11.3 | 0.00 | 0.00 | 0.00 | 22 | 1016.4 |
| 20260507164517 | 14 | 338 | 3.2 | 8.0 | 0.00 | 0.00 | 0.00 | 20 | 1016.3 |
| 20260507163517 | 13 | 315 | 3.2 | 9.7 | 0.00 | 0.00 | 0.00 | 21 | 1016.3 |
| 20260507162517 | 13 | 315 | 6.4 | 9.7 | 0.00 | 0.00 | 0.00 | 22 | 1016.3 |
| 20260507161517 | 13 | 0 | 8.0 | 14.5 | 0.00 | 0.00 | 0.00 | 23 | 1016.2 |
| 20260507160517 | 13 | 315 | 3.2 | 9.7 | 0.00 | 0.00 | 0.00 | 23 | 1016.0 |
| 20260507155537 | 13 | 315 | 4.8 | 11.3 | 0.00 | 0.00 | 0.00 | 22 | 1016.0 |
| 20260507154517 | 13 | 23 | 1.6 | 3.2 | 0.00 | 0.00 | 0.00 | 21 | 1016.0 |
| 20260507153537 | 13 | 338 | 6.4 | 12.9 | 0.00 | 0.00 | 0.00 | 22 | 1016.0 |
| 20260507152517 | 13 | 338 | 9.7 | 16.1 | 0.00 | 0.00 | 0.00 | 22 | 1015.9 |
| 20260507151517 | 13 | 45 | 8.0 | 14.5 | 0.00 | 0.00 | 0.00 | 23 | 1015.8 |
| 20260507150517 | 13 | 0 | 8.0 | 12.9 | 0.00 | 0.00 | 0.00 | 25 | 1015.8 |
| 20260507145517 | 13 | 0 | 4.8 | 9.7 | 0.00 | 0.00 | 0.00 | 23 | 1015.8 |
| 20260507144537 | 13 | 338 | 8.0 | 12.9 | 0.00 | 0.00 | 0.00 | 24 | 1015.8 |
| 20260507143517 | 13 | 0 | 8.0 | 14.5 | 0.00 | 0.00 | 0.00 | 24 | 1015.6 |
| 20260507142517 | 12 | 23 | 4.8 | 11.3 | 0.00 | 0.00 | 0.00 | 26 | 1015.6 |
| 20260507141516 | 12 | 45 | 3.2 | 8.0 | 0.00 | 0.00 | 0.00 | 25 | 1015.6 |
| 20260507140516 | 13 | 45 | 8.0 | 16.1 | 0.00 | 0.00 | 0.00 | 24 | 1015.6 |
| 20260507135517 | 13 | 248 | 4.8 | 11.3 | 0.00 | 0.00 | 0.00 | 24 | 1015.5 |
| 20260507134517 | 13 | 113 | 9.7 | 16.1 | 0.00 | 0.00 | 0.00 | 25 | 1015.5 |
| 20260507133517 | 13 | 0 | 4.8 | 12.9 | 0.00 | 0.00 | 0.00 | 26 | 1015.5 |
| 20260507132516 | 13 | 0 | 4.8 | 9.7 | 0.00 | 0.00 | 0.00 | 25 | 1015.5 |
| 20260507131537 | 13 | 23 | 4.8 | 12.9 | 0.00 | 0.00 | 0.00 | 25 | 1015.4 |
| 20260507130536 | 13 | 23 | 8.0 | 16.1 | 0.00 | 0.00 | 0.00 | 26 | 1015.5 |
| 20260507125537 | 13 | 0 | 6.4 | 11.3 | 0.00 | 0.00 | 0.00 | 28 | 1015.3 |
| 20260507124517 | 12 | 45 | 3.2 | 8.0 | 0.00 | 0.00 | 0.00 | 27 | 1015.3 |
| 20260507123516 | 12 | 68 | 3.2 | 8.0 | 0.00 | 0.00 | 0.00 | 29 | 1015.2 |
| 20260507122517 | 12 | 0 | 6.4 | 11.3 | 0.00 | 0.00 | 0.00 | 25 | 1015.2 |
| 20260507121516 | 13 | 0 | 9.7 | 17.7 | 0.00 | 0.00 | 0.00 | 26 | 1015.2 |
| 20260507120517 | 13 | 0 | 8.0 | 16.1 | 0.00 | 0.00 | 0.00 | 28 | 1015.2 |
| 20260507115517 | 13 | 23 | 4.8 | 11.3 | 0.00 | 0.00 | 0.00 | 29 | 1015.2 |
| 20260507114557 | 12 | 0 | 8.0 | 14.5 | 0.00 | 0.00 | 0.00 | 32 | 1015.2 |
| 20260507113516 | 12 | 270 | 1.6 | 3.2 | 0.00 | 0.00 | 0.00 | 26 | 1015.1 |
| 20260507112536 | 12 | 315 | 4.8 | 12.9 | 0.00 | 0.00 | 0.00 | 28 | 1015.2 |
| 20260507111517 | 12 | 338 | 6.4 | 12.9 | 0.00 | 0.00 | 0.00 | 25 | 1015.2 |
| 20260507110537 | 13 | 248 | 6.4 | 16.1 | 0.00 | 0.00 | 0.00 | 28 | 1015.1 |
| 20260507105516 | 12 | 270 | 8.0 | 16.1 | 0.00 | 0.00 | 0.00 | 26 | 1015.1 |
| 20260507104516 | 12 | 270 | 3.2 | 8.0 | 0.00 | 0.00 | 0.00 | 29 | 1015.0 |
| 20260507103516 | 12 | 0 | 8.0 | 14.5 | 0.00 | 0.00 | 0.00 | 28 | 1015.0 |
| 20260507102536 | 12 | 45 | 3.2 | 4.8 | 0.00 | 0.00 | 0.00 | 31 | 1014.9 |
| 20260507101517 | 12 | 270 | 8.0 | 14.5 | 0.00 | 0.00 | 0.00 | 28 | 1014.9 |
| 20260507100517 | 12 | 270 | 6.4 | 14.5 | 0.00 | 0.00 | 0.00 | 29 | 1014.8 |
| 20260507095516 | 12 | 248 | 4.8 | 9.7 | 0.00 | 0.00 | 0.00 | 32 | 1014.7 |
| 20260507094537 | 12 | 315 | 4.8 | 11.3 | 0.00 | 0.00 | 0.00 | 36 | 1014.7 |
| 20260507093516 | 12 | 270 | 4.8 | 12.9 | 0.00 | 0.00 | 0.00 | 34 | 1014.7 |
| 20260507092516 | 11 | 180 | 4.8 | 11.3 | 0.00 | 0.00 | 0.00 | 40 | 1014.6 |
| 20260507091517 | 11 | 23 | 3.2 | 8.0 | 0.00 | 0.00 | 0.00 | 36 | 1014.6 |
| 20260507090517 | 11 | 293 | 4.8 | 11.3 | 0.00 | 0.00 | 0.00 | 39 | 1014.6 |
| 20260507085516 | 11 | 0 | 3.2 | 8.0 | 0.00 | 0.00 | 0.00 | 44 | 1014.6 |
| 20260507084517 | 10 | 0 | 1.6 | 6.4 | 0.00 | 0.00 | 0.00 | 46 | 1014.6 |
| 20260507083536 | 10 | 338 | 4.8 | 8.0 | 0.00 | 0.00 | 0.00 | 50 | 1014.7 |
| 20260507082536 | 10 | 315 | 3.2 | 6.4 | 0.00 | 0.00 | 0.00 | 52 | 1014.5 |
| 20260507081517 | 10 | 338 | 4.8 | 12.9 | 0.00 | 0.00 | 0.00 | 50 | 1014.5 |
| 20260507080516 | 9 | 270 | 3.2 | 8.0 | 0.00 | 0.00 | 0.00 | 53 | 1014.4 |
| 20260507075516 | 9 | 270 | 3.2 | 6.4 | 0.00 | 0.00 | 0.00 | 54 | 1014.4 |
| 20260507074517 | 8 | 248 | 3.2 | 6.4 | 0.00 | 0.00 | 0.00 | 52 | 1014.4 |
| 20260507073517 | 8 | 338 | 1.6 | 6.4 | 0.00 | 0.00 | 0.00 | 52 | 1014.4 |
| 20260507072516 | 8 | 248 | 3.2 | 6.4 | 0.00 | 0.00 | 0.00 | 52 | 1014.4 |
| 20260507071517 | 8 | 293 | 3.2 | 6.4 | 0.00 | 0.00 | 0.00 | 51 | 1014.3 |